OBJECT E

Satellite information

Favourite Embed

Satellite Type and Status

UNKNOWNIN ORBIT

Key statistics

Satellite OBJECT E at a glance.

Uptime

1467

Days in orbit

Revolutions

≈ 15.4

Per day

Orbit

SSO

Sun Synchronous Orbit

Inclination

97.3

Latest

Satellite identification and parameters

Extended collection of information and parameters for OBJECT E.

Object identification

Identified? True

Debris? False

Object name: OBJECT E

International designator: 2021-061E

Object number (NORAD): 49007

Object ID (CCSDS): 49007

Country: PEOPLES REPUBLIC OF CHINA (PRC)

Current information (Y/N): Y

RCS size: MEDIUM

Orbital parameters

Period: 93.309 minutes

Inclination: 97.3415 deg

SMA: 6814.645 km

Apoapsis: 439.734 km

Periapsis: 433.287 km

RAAN: 255.6276 deg

Eccentricy: 0.000473

Argument of periapsis: 230.4568 deg

Mean anomaly: 129.6262 deg

Mean motion: 15.432556 rev/day

Mean motion (dot): 0.00018464 rev/day2

B* drag term: 0.00041676 1/REarth

Two-line elements (TLE)

Creation date: July 9, 2025, 2:22 a.m.

Reference frame: TEME

Reference center: EARTH

Epoch: July 8, 2025, 9:30 p.m. UTC

TLE line 0: 0 OBJECT E

TLE line 1: 1 49007U 21061E 25189.89641701 .00018464 00000-0 41676-3 0 9991

TLE line 2: 2 49007 97.3415 255.6276 0004730 230.4568 129.6262 15.43255600222629

Live tracking on map

Real-time ground track for satellite OBJECT E.

In-orbit conjunctions

There are no conjunctions computed for OBJECT E, at the moment. Check back to stay up to date, as we update our databases every day.

Go to all conjunctions

Associated space launch

Jilin-1 satellites are a series of Chinese commercial remote sensing satellite for high definition video within the Jilin-1 constellation designed and owned by the Chang Guang Satellite Technology Corporation.

OBJECT E was lifted into orbit during the mission ‘Long March 2D | Jilin-1 Wideband-01B & High Resolution 03D’, on board a Long March 2D space rocket.

The launch took place on July 3, 2021, 2:51 a.m. from Launch Complex 9.

For more information about the launch, click the button.

Launch to space Long March 2D | Jilin-1 Wideband-01B & High Resolution 03D
Long March 2D | Jilin-1 Wideband-01B & High Resolution 03D

Agency: N/A

Status: Launch Successful

Launch date: July 3, 2021, 2:51 a.m. UTC

Rocket: Long March 2D

Launch pad: Launch Complex 9

Location: Taiyuan Satellite Launch Center, People's Republic of China

...

Latest news about this satellite

News about space launch
China Launches Five Satellites on a Chang Zheng 2D

At 02:51 UTC, or 10:51 AM Beijing time on Saturday, July 3, the China Aerospace Science and Technology Corporation (CASC) successfully launched a Chang Zheng 2D rocket from LC-9 at the Taiyuan Satellite Launch Center, carrying five satellites into Sun Syn...

News about space launch
China launches five Earth observation satellites on Long March 2D rocket

China successfully launched five small remote sensing satellites on top of a Long March 2D rocket Saturday into an orbit more than 330 miles above Earth.


Newsletter sign-up

Weekly statistics, charts and insights to help you stay on top of the space industry.